Flag for Germany Weather past 2 weeks in Eckernförde, Schleswig-Holstein, Germany

Now
55 °F

Sprinkles. Overcast.


Feels Like: 54 °F
Forecast: 50 / 61 °F
Wind: 5 mph from Southwest

Location: Schleswig

Current Time: Sep 3, 2015 at 9:52:48 PM

Latest Report: Sep 3, 2015 at 9:00 PM


Visibility: 4 mi

Pressure: 29.89 "Hg

Humidity: 89%

Dew point: 51 °F

Location of EckernfördeLocation

Historic Weather in Eckernförde — Graph

°F

Eckernförde temperature yesterday

Maximum temperature yesterday: 64 °F (at 1:00 PM)
Minimum temperature yesterday: 54 °F (at 2:00 AM)
Average temperature yesterday: 58 °F

Past Weeks' High & Low Weather Summary

 TemperatureHumidityPressure
High76 °F (Aug 21, 3:00 PM)100% (Aug 20, 3:00 AM)30.31 "Hg (Aug 20, 3:00 AM)
Low49 °F (Sep 3, 7:00 AM)36% (Aug 21, 3:00 PM)29.59 "Hg (Aug 24, 10:00 PM)
Average63 °F82%29.97 "Hg
* Reported Aug 19 8:00 PM — Sep 3 8:00 PM, Eckernförde, Weather by CustomWeather, © 2015

Note: Actual official high and low records may vary slightly from our data, if they occured in-between our weather recording intervals... More about our weather records

Advertising

Eckernförde weather history for previous 24 hours

 ConditionsComfort  
Time TempWeatherWind HumidityBarometerVisibility
8:00 PM
Thu, Sep 3
58 °FPartly sunny.2 mph76%29.87 "Hg25 mi
7:00 PM59 °FPartly sunny.2 mph76%29.87 "Hg25 mi
6:00 PM59 °FPartly sunny.3 mph78%29.88 "Hg25 mi
5:00 PM63 °FScattered clouds.3 mph62%29.88 "Hg22 mi
4:00 PM64 °FScattered clouds.6 mph60%29.88 "Hg22 mi
3:00 PM62 °FScattered clouds.6 mph64%29.89 "Hg25 mi
2:00 PM63 °FScattered clouds.6 mph66%29.89 "Hg25 mi
1:00 PM63 °FScattered clouds.8 mph63%29.89 "Hg19 mi
12:00 PM62 °FScattered clouds.6 mph67%29.89 "Hg19 mi
10:00 AM57 °FScattered clouds.6 mph89%29.90 "Hg12 mi
9:00 AM54 °FScattered clouds.5 mph93%29.90 "Hg12 mi
8:00 AM51 °FScattered clouds.5 mph98%29.89 "Hg7 mi
7:00 AM49 °FScattered clouds.5 mph99%29.89 "Hg5 mi
5:00 AM50 °FPassing clouds.5 mph98%29.88 "Hg9 mi
4:00 AM51 °FPassing clouds.5 mph97%29.89 "Hg16 mi
3:00 AM52 °FPassing clouds.5 mph97%29.89 "Hg16 mi
2:00 AM53 °FOvercast.3 mph97%29.90 "Hg19 mi
1:00 AM53 °FPassing clouds.5 mph97%29.91 "Hg19 mi
10:00 PM
Wed, Sep 2
55 °FPassing clouds.5 mph91%29.91 "Hg19 mi
9:00 PM56 °FPassing clouds.5 mph92%29.90 "Hg19 mi
Weather by CustomWeather, © 2015

See weather overviewHow to use our weather pages